VK2RZ Weather Reports


time (UTC)temp
F
wind
direction
speed
knots
gust
knots
rain 1hr
in
rain 24hr
in
rain mn
in
humidity
%
barometer
mb
20260902191432 65 230 1.7 1.7 0.00 0.00 0.00 6 1010.7
20260902190432 65 0 0.0 0.0 0.00 0.00 0.00 6 1010.9
20260902185432 67 230 1.7 3.5 0.00 0.00 0.00 6 1011.0
20260902184432 68 233 1.7 3.5 0.00 0.00 0.00 5 1011.2
20260902183436 68 265 1.7 8.7 0.00 0.00 0.00 5 1011.5
20260902182433 67 132 1.7 2.6 0.00 0.00 0.00 5 1010.9
20260902180432 67 132 1.7 1.7 0.00 0.00 0.00 5 1010.3
20260902174432 68 132 0.9 4.3 0.00 0.00 0.00 5 1010.4
20260902173432 68 175 0.9 5.2 0.00 0.00 0.00 5 1010.6
20260902172432 68 233 2.6 3.5 0.00 0.00 0.00 5 1010.8
20260902171433 68 132 1.7 7.8 0.00 0.00 0.00 5 1011.0
20260902170432 68 235 3.5 7.8 0.00 0.00 0.00 5 1010.9
20260902165433 68 233 0.9 7.8 0.00 0.00 0.00 5 1011.2
20260902164432 68 258 1.7 6.1 0.00 0.00 0.00 5 1011.2
20260902163432 68 191 0.9 9.6 0.00 0.00 0.00 5 1011.5
20260902162432 67 235 4.3 4.3 0.00 0.00 0.00 5 1011.7
20260902161433 67 252 3.5 4.3 0.00 0.00 0.00 5 1011.7
20260902160432 67 238 2.6 2.6 0.00 0.00 0.00 6 1011.8
20260902155432 66 231 0.9 3.5 0.00 0.00 0.00 6 1012.0
20260902154432 65 231 3.5 4.3 0.00 0.00 0.00 6 1012.2
20260902153431 67 261 0.9 3.5 0.00 0.00 0.00 6 1012.3
20260902152432 67 265 1.7 4.3 0.00 0.00 0.00 5 1012.4
20260902151431 66 274 2.6 3.5 0.00 0.00 0.00 5 1012.5
20260902150431 66 294 1.7 2.6 0.00 0.00 0.00 6 1012.6
20260902145431 65 247 0.9 3.5 0.00 0.00 0.00 6 1012.9
20260902144431 65 274 0.9 1.7 0.00 0.00 0.00 6 1012.9
20260902143432 66 274 1.7 3.5 0.00 0.00 0.00 5 1013.0
20260902142432 65 274 1.7 2.6 0.00 0.00 0.00 6 1013.1
20260902141431 65 274 0.9 2.6 0.00 0.00 0.00 6 1013.3
20260902140433 65 274 0.9 2.6 0.00 0.00 0.00 6 1013.4
20260902135431 65 0 0.0 1.7 0.00 0.00 0.00 6 1013.5
20260902134432 65 274 0.9 1.7 0.00 0.00 0.00 6 1013.4
20260902133431 65 274 0.9 1.7 0.00 0.00 0.00 5 1013.5
20260902132431 65 0 0.0 1.7 0.00 0.00 0.00 6 1013.7
20260902131432 64 275 0.9 1.7 0.00 0.00 0.00 6 1014.0
20260902130432 65 0 0.0 0.0 0.00 0.00 0.00 5 1013.9
20260902125430 65 0 0.0 0.0 0.00 0.00 0.00 5 1014.0
20260902124429 65 0 0.0 0.0 0.00 0.00 0.00 5 1014.1
20260902123429 65 0 0.0 0.0 0.00 0.00 0.00 5 1014.3
20260902122429 66 0 0.0 0.0 0.00 0.00 0.00 5 1014.4
20260902121429 66 0 0.0 0.0 0.00 0.00 0.00 5 1014.4
20260902120429 66 0 0.0 0.0 0.00 0.00 0.00 5 1014.7
20260902115429 66 0 0.0 0.0 0.00 0.00 0.00 5 1014.6
20260902114430 66 0 0.0 0.9 0.00 0.00 0.00 5 1014.6
20260902113429 67 0 0.0 0.9 0.00 0.00 0.00 5 1014.7
20260902112433 67 0 0.0 1.7 0.00 0.00 0.00 5 1014.9
20260902111430 68 275 0.9 1.7 0.00 0.00 0.00 5 1014.9
20260902110429 69 275 0.9 2.6 0.00 0.00 0.00 5 1015.0
20260902105429 69 275 1.7 2.6 0.00 0.00 0.00 5 1015.0
20260902104430 69 275 0.9 2.6 0.00 0.00 0.00 5 1014.9
20260902103429 69 276 1.7 3.5 0.00 0.00 0.00 5 1014.9
20260902102429 69 0 0.0 1.7 0.00 0.00 0.00 5 1014.7
20260902101429 70 276 0.9 1.7 0.00 0.00 0.00 5 1014.6
20260902100429 70 276 0.9 2.6 0.00 0.00 0.00 4 1014.6
20260902095430 71 277 1.7 3.5 0.00 0.00 0.00 4 1014.6
20260902094428 72 278 1.7 6.1 0.00 0.00 0.00 4 1014.5
20260902093428 72 249 4.3 5.2 0.00 0.00 0.00 4 1014.5
20260902092428 72 272 3.5 6.1 0.00 0.00 0.00 4 1014.4
20260902091428 71 255 3.5 6.1 0.00 0.00 0.00 4 1014.3
20260902090431 71 268 1.7 3.5 0.00 0.00 0.00 4 1014.2
20260902085427 71 273 0.9 3.5 0.00 0.00 0.00 4 1014.2
20260902084427 71 0 0.0 3.5 0.00 0.00 0.00 4 1014.2
20260902082427 72 285 0.9 5.2 0.00 0.00 0.00 4 1013.9
20260902080426 73 278 1.7 3.5 0.00 0.00 0.00 4 1013.7
20260902075427 73 0 0.0 6.1 0.00 0.00 0.00 4 1013.5
20260902074426 74 258 0.9 3.5 0.00 0.00 0.00 4 1013.4
20260902073426 74 304 0.9 2.6 0.00 0.00 0.00 4 1013.3
20260902072431 75 0 0.0 3.5 0.00 0.00 0.00 4 1013.1
20260902071425 76 281 2.6 5.2 0.00 0.00 0.00 4 1013.0
20260902070429 77 257 2.6 9.6 0.00 0.00 0.00 4 1013.0
20260902065431 77 276 0.9 8.7 0.00 0.00 0.00 3 1012.8
20260902063428 78 251 2.6 9.6 0.00 0.00 0.00 3 1012.7
20260902062429 78 272 7.0 11.3 0.00 0.00 0.00 3 1012.6
20260902060425 79 241 4.3 8.7 0.00 0.00 0.00 3 1012.7
20260902055431 80 207 3.5 11.3 0.00 0.00 0.00 3 1012.5
20260902054425 80 273 2.6 9.6 0.00 0.00 0.00 3 1012.5
20260902053425 80 245 7.0 8.7 0.00 0.00 0.00 3 1012.6
20260902052426 80 291 0.9 11.3 0.00 0.00 0.00 3 1012.6
20260902051431 81 202 5.2 10.4 0.00 0.00 0.00 3 1012.6
20260902050425 81 268 3.5 8.7 0.00 0.00 0.00 3 1012.7
20260902045432 80 289 9.6 13.0 0.00 0.00 0.00 3 1012.8
20260902044428 81 306 3.5 8.7 0.00 0.00 0.00 3 1012.8
20260902043428 81 243 7.8 11.3 0.00 0.00 0.00 3 1012.6
20260902042426 81 197 2.6 7.8 0.00 0.00 0.00 3 1012.6
20260902040428 80 229 3.5 7.0 0.00 0.00 0.00 3 1012.8
20260902035432 79 255 2.6 6.1 0.00 0.00 0.00 4 1012.9
20260902034431 77 263 0.9 8.7 0.00 0.00 0.00 4 1013.0
20260902033429 79 252 3.5 8.7 0.00 0.00 0.00 4 1013.1
20260902032425 80 241 2.6 11.3 0.00 0.00 0.00 4 1013.1
20260902031425 79 208 4.3 8.7 0.00 0.00 0.00 4 1013.4
20260902030425 80 0 0.0 7.8 0.00 0.00 0.00 4 1013.5
20260902025425 79 260 6.1 11.3 0.00 0.00 0.00 4 1013.7
20260902024426 80 234 1.7 9.6 0.00 0.00 0.00 4 1013.8
20260902023425 79 285 8.7 11.3 0.00 0.00 0.00 4 1014.1
20260902022432 80 175 2.6 5.2 0.00 0.00 0.00 4 1014.2
20260902021425 79 275 0.9 12.2 0.00 0.00 0.00 4 1014.2
20260902020427 79 233 5.2 8.7 0.00 0.00 0.00 4 1014.4
20260902015427 78 277 7.8 8.7 0.00 0.00 0.00 4 1014.7
20260902014426 77 225 4.3 14.8 0.00 0.00 0.00 4 1014.8
20260902013425 78 294 15.6 21.7 0.00 0.00 0.00 4 1015.2
20260902012426 77 268 2.6 8.7 0.00 0.00 0.00 4 1015.2
20260902011425 77 288 1.7 6.1 0.00 0.00 0.00 4 1015.2
20260902010425 76 229 2.6 13.9 0.00 0.00 0.00 4 1015.2
20260902005425 75 270 7.8 9.6 0.00 0.00 0.00 4 1015.7
20260902003426 75 202 0.9 10.4 0.00 0.00 0.00 4 1015.8
20260902002425 75 279 3.5 13.0 0.00 0.00 0.00 4 1015.9
20260902001425 74 175 3.5 7.8 0.00 0.00 0.00 5 1016.2
20260902000429 73 106 3.5 12.2 0.00 0.00 0.00 5 1016.2
20260901235424 72 241 2.6 13.9 0.00 0.00 0.00 5 1016.1
20260901234424 71 232 1.7 7.0 0.00 0.00 0.00 5 1016.2
20260901233428 69 113 3.5 6.1 0.00 0.00 0.00 5 1016.4
20260901232427 68 59 1.7 4.3 0.00 0.00 0.00 6 1016.7
20260901231426 67 225 1.7 5.2 0.00 0.00 0.00 6 1017.0
20260901230423 66 124 0.9 4.3 0.00 0.00 0.00 6 1017.1
20260901225426 66 113 0.9 1.7 0.00 0.00 0.00 6 1017.2
20260901224428 66 136 2.6 4.3 0.00 0.00 0.00 6 1017.2
20260901223426 65 166 0.9 5.2 0.00 0.00 0.00 6 1017.2
20260901221423 65 122 2.6 3.5 0.00 0.00 0.00 6 1017.3
20260901220426 64 120 3.5 4.3 0.00 0.00 0.00 6 1017.2
20260901215422 64 122 1.7 4.3 0.00 0.00 0.00 6 1017.1
20260901214424 64 167 0.9 5.2 0.00 0.00 0.00 6 1017.1
20260901213422 64 185 0.9 3.5 0.00 0.00 0.00 6 1017.4
20260901212422 63 210 2.6 3.5 0.00 0.00 0.00 6 1017.3
20260901211422 63 211 0.9 2.6 0.00 0.00 0.00 6 1017.3
20260901210426 63 211 0.9 2.6 0.00 0.00 0.00 6 1017.2
20260901204426 65 210 4.3 4.3 0.00 0.00 0.00 5 1017.4
20260901203426 65 231 2.6 4.3 0.00 0.00 0.00 5 1017.4
20260901202424 64 213 0.9 8.7 0.00 0.00 0.00 6 1017.4
20260901201422 62 185 1.7 3.5 0.00 0.00 0.00 6 1017.0
20260901200423 61 169 1.7 2.6 0.00 0.00 0.00 6 1016.7
20260901194422 62 185 0.9 2.6 0.00 0.00 0.00 6 1016.6
20260901193422 61 0 0.0 0.0 0.00 0.00 0.00 6 1016.6
20260901192422 61 0 0.0 0.0 0.00 0.00 0.00 6 1016.4